Voltar ao catálogo

KANOPUS-V 3

AtivoCiênciaSSO
NORAD 43180·PAYLOAD·🇷🇺 Russia

Lançado Feb 1, 2018 de Vostochny Cosmodrome

Loading…

Próximas Passagens (próximas 24 horas)

TLE

AtualizadoSource: Space-Track

Época: Sep 14, 2026, 15:32 UTC

1 43180U 18014A   26257.64762750  .00001576  00000-0  71104-4 0  9995
2 43180  97.3475 161.2718 0001773  87.9418 272.2021 15.22445097478334

Acompanhe KANOPUS-V 3 em tempo real com AllMySat

Download on the App Store